Météo par heure à Jurandowo

Ce jour, 20 Juin, Dimanche

Heure Température Précipitation Vent Pression Humidité
00:00 +22°C° 0 mm 3 m/s 761 mmHg 77%
01:00 +22°C° 0 mm 3 m/s 761 mmHg 82%
02:00 +22°C° 0 mm 3 m/s 761 mmHg 83%
03:00 +22°C° 0 mm 3 m/s 761 mmHg 84%
04:00 +21°C° 0 mm 3 m/s 760 mmHg 86%
05:00 +24°C° 0 mm 3 m/s 761 mmHg 82%
06:00 +25°C° 0 mm 4 m/s 761 mmHg 78%
07:00 +26°C° 0 mm 4 m/s 761 mmHg 74%
08:00 +27°C° 0 mm 5 m/s 761 mmHg 69%
09:00 +28°C° 0 mm 5 m/s 761 mmHg 63%
10:00 +29°C° 0 mm 5 m/s 760 mmHg 57%
11:00 +30°C° 0 mm 5 m/s 760 mmHg 54%
12:00 +30°C° 0 mm 5 m/s 760 mmHg 52%
13:00 +30°C° 0 mm 5 m/s 760 mmHg 49%
14:00 +30°C° 0 mm 5 m/s 759 mmHg 52%
15:00 +30°C° 0 mm 5 m/s 759 mmHg 54%
16:00 +30°C° 0 mm 4 m/s 759 mmHg 56%
17:00 +29°C° 0 mm 4 m/s 759 mmHg 62%
18:00 +28°C° 0 mm 4 m/s 758 mmHg 68%
19:00 +26°C° 0 mm 3 m/s 758 mmHg 75%
20:00 +25°C° 0 mm 3 m/s 758 mmHg 77%
21:00 +24°C° 0 mm 3 m/s 758 mmHg 79%
22:00 +22°C° 0 mm 3 m/s 759 mmHg 81%
23:00 +22°C° 0 mm 3 m/s 758 mmHg 83%

Demain, 21 Juin, Lundi

Heure Température Précipitation Vent Pression Humidité
00:00 +21°C° 0 mm 3 m/s 758 mmHg 86%
01:00 +21°C° 0 mm 3 m/s 758 mmHg 89%
02:00 +21°C° 0 mm 3 m/s 758 mmHg 89%
03:00 +21°C° 0 mm 3 m/s 758 mmHg 90%
04:00 +21°C° 0 mm 3 m/s 758 mmHg 91%
05:00 +22°C° 0 mm 3 m/s 758 mmHg 85%
06:00 +25°C° 0 mm 4 m/s 758 mmHg 80%
07:00 +26°C° 0 mm 4 m/s 758 mmHg 74%
08:00 +27°C° 0 mm 5 m/s 758 mmHg 68%
09:00 +29°C° 0 mm 5 m/s 758 mmHg 62%
10:00 +30°C° 0 mm 5 m/s 758 mmHg 56%
11:00 +30°C° 0 mm 5 m/s 757 mmHg 53%
12:00 +32°C° 0 mm 5 m/s 757 mmHg 50%
13:00 +32°C° 0 mm 5 m/s 757 mmHg 48%
14:00 +32°C° 0 mm 5 m/s 757 mmHg 50%
15:00 +32°C° 0 mm 4 m/s 756 mmHg 53%
16:00 +32°C° 0 mm 4 m/s 756 mmHg 55%
17:00 +29°C° 0.1 mm 4 m/s 756 mmHg 62%
18:00 +28°C° 0.1 mm 3 m/s 756 mmHg 68%
19:00 +27°C° 0.1 mm 3 m/s 756 mmHg 75%
20:00 +25°C° 0 mm 3 m/s 756 mmHg 78%
21:00 +24°C° 0 mm 3 m/s 756 mmHg 81%
22:00 +22°C° 0 mm 3 m/s 756 mmHg 85%
23:00 +21°C° 0 mm 3 m/s 756 mmHg 87%

Après-demain, 22 Juin, Mardi

Heure Température Précipitation Vent Pression Humidité
00:00 +21°C° 0 mm 3 m/s 756 mmHg 89%
01:00 +20°C° 0 mm 3 m/s 756 mmHg 91%
02:00 +20°C° 0 mm 2 m/s 756 mmHg 91%
03:00 +20°C° 0 mm 2 m/s 756 mmHg 91%
04:00 +20°C° 0 mm 2 m/s 756 mmHg 92%
05:00 +21°C° 0.2 mm 2 m/s 756 mmHg 90%
06:00 +23°C° 0.2 mm 1 m/s 757 mmHg 88%
07:00 +24°C° 0.2 mm 1 m/s 757 mmHg 86%
08:00 +24°C° 0.4 mm 2 m/s 757 mmHg 84%
09:00 +25°C° 0.4 mm 2 m/s 758 mmHg 83%
10:00 +25°C° 0.4 mm 3 m/s 758 mmHg 81%
11:00 +25°C° 0.1 mm 3 m/s 758 mmHg 79%
12:00 +26°C° 0.1 mm 3 m/s 758 mmHg 77%
13:00 +26°C° 0.1 mm 3 m/s 759 mmHg 74%
14:00 +25°C° 0.1 mm 3 m/s 759 mmHg 74%
15:00 +25°C° 0.1 mm 4 m/s 759 mmHg 73%
16:00 +23°C° 0.1 mm 4 m/s 759 mmHg 72%
17:00 +22°C° 0 mm 4 m/s 760 mmHg 75%
18:00 +21°C° 0 mm 4 m/s 760 mmHg 78%
19:00 +19°C° 0 mm 3 m/s 760 mmHg 81%
20:00 +18°C° 0 mm 3 m/s 760 mmHg 84%
21:00 +17°C° 0 mm 3 m/s 760 mmHg 86%
22:00 +16°C° 0 mm 3 m/s 761 mmHg 89%
23:00 +16°C° 0 mm 2 m/s 761 mmHg 90%

23 Juin, Mercredi

Heure Température Précipitation Vent Pression Humidité
00:00 +16°C° 0 mm 2 m/s 761 mmHg 90%
01:00 +15°C° 0 mm 2 m/s 761 mmHg 90%
02:00 +15°C° 0 mm 2 m/s 761 mmHg 90%
03:00 +15°C° 0 mm 2 m/s 761 mmHg 90%
04:00 +16°C° 0 mm 2 m/s 761 mmHg 90%
05:00 +17°C° 0 mm 2 m/s 761 mmHg 85%
06:00 +19°C° 0 mm 2 m/s 761 mmHg 79%
07:00 +21°C° 0 mm 2 m/s 761 mmHg 73%
08:00 +23°C° 0.1 mm 2 m/s 761 mmHg 71%
09:00 +24°C° 0.1 mm 2 m/s 760 mmHg 69%
10:00 +26°C° 0.1 mm 2 m/s 760 mmHg 67%
11:00 +27°C° 0 mm 2 m/s 760 mmHg 66%
12:00 +28°C° 0 mm 2 m/s 760 mmHg 65%
13:00 +29°C° 0 mm 2 m/s 760 mmHg 63%
14:00 +27°C° 1.6 mm 2 m/s 760 mmHg 70%
15:00 +26°C° 1.6 mm 3 m/s 760 mmHg 76%
16:00 +25°C° 1.6 mm 3 m/s 760 mmHg 82%
17:00 +22°C° 1.9 mm 3 m/s 760 mmHg 85%
18:00 +21°C° 1.9 mm 3 m/s 761 mmHg 89%
19:00 +20°C° 1.9 mm 2 m/s 761 mmHg 92%
20:00 +19°C° 0.2 mm 2 m/s 761 mmHg 93%
21:00 +18°C° 0.2 mm 2 m/s 761 mmHg 93%
22:00 +17°C° 0.2 mm 2 m/s 762 mmHg 94%
23:00 +17°C° 0 mm 3 m/s 762 mmHg 95%

24 Juin, Jeudi

Heure Température Précipitation Vent Pression Humidité
00:00 +17°C° 0 mm 3 m/s 762 mmHg 96%
01:00 +16°C° 0 mm 3 m/s 762 mmHg 97%
02:00 +16°C° 0.1 mm 3 m/s 762 mmHg 97%
03:00 +16°C° 0.1 mm 3 m/s 762 mmHg 97%
04:00 +16°C° 0.1 mm 2 m/s 762 mmHg 97%
05:00 +17°C° 0 mm 2 m/s 762 mmHg 93%
06:00 +18°C° 0 mm 2 m/s 762 mmHg 89%
07:00 +19°C° 0 mm 3 m/s 762 mmHg 85%
08:00 +21°C° 0 mm 3 m/s 762 mmHg 79%
09:00 +22°C° 0 mm 3 m/s 763 mmHg 74%
10:00 +24°C° 0 mm 3 m/s 763 mmHg 68%
11:00 +25°C° 0 mm 3 m/s 763 mmHg 67%
12:00 +25°C° 0 mm 2 m/s 763 mmHg 66%
13:00 +25°C° 0 mm 2 m/s 763 mmHg 65%
14:00 +25°C° 0 mm 3 m/s 762 mmHg 69%
15:00 +23°C° 0 mm 4 m/s 762 mmHg 72%
16:00 +22°C° 0 mm 4 m/s 762 mmHg 76%
17:00 +21°C° 0 mm 4 m/s 762 mmHg 78%
18:00 +20°C° 0 mm 3 m/s 762 mmHg 81%
19:00 +19°C° 0 mm 3 m/s 763 mmHg 84%
20:00 +19°C° 0 mm 3 m/s 763 mmHg 84%
21:00 +18°C° 0 mm 3 m/s 763 mmHg 84%
22:00 +18°C° 0 mm 3 m/s 763 mmHg 84%
23:00 +18°C° 0 mm 2 m/s 763 mmHg 84%

25 Juin, Vendredi

Heure Température Précipitation Vent Pression Humidité
00:00 +17°C° 0 mm 2 m/s 763 mmHg 83%
01:00 +17°C° 0 mm 2 m/s 762 mmHg 83%
02:00 +17°C° 0 mm 2 m/s 762 mmHg 84%
03:00 +17°C° 0 mm 2 m/s 762 mmHg 86%
04:00 +17°C° 0 mm 2 m/s 762 mmHg 87%
05:00 +17°C° 0 mm 2 m/s 762 mmHg 87%
06:00 +17°C° 0 mm 2 m/s 762 mmHg 87%
07:00 +18°C° 0 mm 2 m/s 762 mmHg 87%
08:00 +18°C° 0.1 mm 2 m/s 763 mmHg 87%
09:00 +18°C° 0.1 mm 2 m/s 763 mmHg 88%
10:00 +18°C° 0.1 mm 2 m/s 763 mmHg 88%
11:00 +20°C° 0 mm 2 m/s 763 mmHg 81%
12:00 +21°C° 0 mm 2 m/s 763 mmHg 74%
13:00 +23°C° 0 mm 2 m/s 763 mmHg 67%
14:00 +22°C° 0 mm 3 m/s 763 mmHg 66%
15:00 +22°C° 0 mm 3 m/s 762 mmHg 66%
16:00 +22°C° 0 mm 4 m/s 762 mmHg 65%
17:00 +21°C° 0 mm 3 m/s 762 mmHg 70%
18:00 +19°C° 0 mm 3 m/s 762 mmHg 75%
19:00 +18°C° 0 mm 2 m/s 762 mmHg 80%
20:00 +17°C° 0 mm 2 m/s 762 mmHg 84%
21:00 +16°C° 0 mm 2 m/s 762 mmHg 88%
22:00 +15°C° 0 mm 2 m/s 762 mmHg 91%
23:00 +14°C° 0 mm 2 m/s 763 mmHg 92%
Voir plus

Nous avons besoin de votre consentement

Meteoprog et ses fournisseurs de services peuvent stocker et accéder à des données personnelles telles que des cookies, des identifiants d'appareils ou d'autres technologies similaires sur votre appareil et traiter ces données pour personnaliser le contenu et les publicités, ainsi que pour fournir des fonctionnalités de médias sociaux et analyser le trafic.

  • Stocker et/ou accéder à des informations sur votre appareil

    Des cookies, des identifiants d'appareils ou d'autres informations peuvent être stockés ou accessibles sur votre appareil aux fins indiquées ci-dessus.

  • Annonces et contenus personnalisés, mesure des annonces et des contenus, connaissance de l'audience et développement de produits

    Les annonces et le contenu peuvent être personnalisés en fonction d'un profil. D'autres données peuvent être ajoutées pour mieux personnaliser les annonces et le contenu. Les performances des publicités et du contenu peuvent être mesurées. Il est possible d'obtenir des informations sur le public qui a vu les publicités et le contenu. Ces données peuvent être utilisées pour développer ou améliorer l'expérience de l'utilisateur, les systèmes et les logiciels.

En cliquant sur "J'accepte", vous autorisez l'utilisation de cookies, des identifiants d'appareils, des balises web ou d'autres technologies similaires. Vos paramètres peuvent être modifiés dans le navigateur de votre appareil.

Dans certains cas, des intérêts légitimes peuvent être invoqués plutôt qu'un consentement. Vous pouvez en savoir plus à ce sujet dans notre Politique de confidentialité et de cookies.